When you browse on this site, cookies collect data to enhance your experience and personalize the content and advertising you see.
Visit our Privacy Policy to learn more. By continuing to use the site, you agree to this use of cookies and data.
  • In Deutschland
  • Länderverzeichnis
  • Für 7 Tage
  • Wassertemperatur
  • Wetterkarte
  • Widgets
  • user-avatar
    Anmelden

    Stündliche Wetter Kvashninskoe

    Heute, 16 Oktober, Mittwoch

    Zeit Temperatur Niederschläge Wind Luftdruck Luftfeuchtigkeit
    00:00 +2°C° 0 mm 2 m/S 743 mmHg 93%
    01:00 +2°C° 0 mm 2 m/S 743 mmHg 93%
    02:00 +1°C° 0 mm 3 m/S 743 mmHg 93%
    03:00 0°C° 0 mm 3 m/S 744 mmHg 93%
    04:00 0°C° 0 mm 3 m/S 744 mmHg 92%
    05:00 0°C° 0 mm 3 m/S 744 mmHg 92%
    06:00 0°C° 0 mm 3 m/S 744 mmHg 92%
    07:00 -1°C° 0 mm 4 m/S 745 mmHg 92%
    08:00 -1°C° 0.1 mm 4 m/S 745 mmHg 93%
    09:00 0°C° 0.1 mm 4 m/S 746 mmHg 94%
    10:00 0°C° 0.1 mm 4 m/S 746 mmHg 95%
    11:00 0°C° 0.2 mm 4 m/S 746 mmHg 95%
    12:00 0°C° 0.2 mm 4 m/S 747 mmHg 95%
    13:00 0°C° 0.2 mm 5 m/S 747 mmHg 95%
    14:00 0°C° 0 mm 5 m/S 748 mmHg 93%
    15:00 0°C° 0 mm 5 m/S 748 mmHg 90%
    16:00 +1°C° 0 mm 5 m/S 749 mmHg 87%
    17:00 0°C° 0 mm 4 m/S 749 mmHg 87%
    18:00 0°C° 0 mm 4 m/S 750 mmHg 87%
    19:00 0°C° 0 mm 4 m/S 750 mmHg 87%
    20:00 0°C° 0 mm 4 m/S 751 mmHg 89%
    21:00 0°C° 0 mm 4 m/S 751 mmHg 91%
    22:00 0°C° 0 mm 4 m/S 752 mmHg 92%
    23:00 -1°C° 0.1 mm 4 m/S 752 mmHg 92%

    Morgen, 17 Oktober, Donnerstag

    Zeit Temperatur Niederschläge Wind Luftdruck Luftfeuchtigkeit
    00:00 -1°C° 0.1 mm 4 m/S 752 mmHg 91%
    01:00 -1°C° 0.1 mm 4 m/S 753 mmHg 90%
    02:00 -1°C° 0 mm 4 m/S 753 mmHg 89%
    03:00 -2°C° 0 mm 4 m/S 754 mmHg 87%
    04:00 -2°C° 0 mm 4 m/S 754 mmHg 86%
    05:00 -2°C° 0 mm 4 m/S 755 mmHg 86%
    06:00 -2°C° 0 mm 4 m/S 755 mmHg 86%
    07:00 -2°C° 0 mm 4 m/S 755 mmHg 86%
    08:00 -2°C° 0 mm 4 m/S 755 mmHg 82%
    09:00 -1°C° 0 mm 4 m/S 755 mmHg 78%
    10:00 0°C° 0 mm 4 m/S 756 mmHg 74%
    11:00 0°C° 0 mm 4 m/S 756 mmHg 73%
    12:00 0°C° 0 mm 4 m/S 756 mmHg 71%
    13:00 +1°C° 0 mm 4 m/S 756 mmHg 70%
    14:00 0°C° 0 mm 4 m/S 756 mmHg 71%
    15:00 +1°C° 0 mm 3 m/S 756 mmHg 73%
    16:00 +1°C° 0 mm 3 m/S 756 mmHg 74%
    17:00 0°C° 0 mm 3 m/S 756 mmHg 76%
    18:00 -1°C° 0 mm 2 m/S 756 mmHg 79%
    19:00 -1°C° 0 mm 2 m/S 756 mmHg 81%
    20:00 -1°C° 0 mm 2 m/S 756 mmHg 82%
    21:00 -1°C° 0 mm 2 m/S 755 mmHg 83%
    22:00 -1°C° 0 mm 2 m/S 755 mmHg 85%
    23:00 -1°C° 0.2 mm 2 m/S 755 mmHg 89%

    übermorgen, 18 Oktober, Freitag

    Zeit Temperatur Niederschläge Wind Luftdruck Luftfeuchtigkeit
    00:00 -1°C° 0.2 mm 2 m/S 754 mmHg 93%
    01:00 -1°C° 0.2 mm 2 m/S 753 mmHg 97%
    02:00 -1°C° 0.3 mm 2 m/S 753 mmHg 97%
    03:00 -1°C° 0.3 mm 2 m/S 753 mmHg 97%
    04:00 -1°C° 0.3 mm 2 m/S 752 mmHg 97%
    05:00 -1°C° 0.1 mm 2 m/S 752 mmHg 97%
    06:00 -1°C° 0.1 mm 2 m/S 751 mmHg 97%
    07:00 -1°C° 0.1 mm 2 m/S 751 mmHg 97%
    08:00 -1°C° 0.2 mm 2 m/S 750 mmHg 97%
    09:00 -1°C° 0.2 mm 2 m/S 750 mmHg 97%
    10:00 +1°C° 0.2 mm 2 m/S 750 mmHg 96%
    11:00 +1°C° 0.4 mm 2 m/S 750 mmHg 97%
    12:00 0°C° 0.4 mm 3 m/S 750 mmHg 97%
    13:00 0°C° 0.4 mm 3 m/S 750 mmHg 97%
    14:00 0°C° 0.3 mm 3 m/S 750 mmHg 97%
    15:00 -2°C° 0.3 mm 4 m/S 751 mmHg 97%
    16:00 -2°C° 0.3 mm 4 m/S 751 mmHg 97%
    17:00 -2°C° 0.1 mm 4 m/S 752 mmHg 95%
    18:00 -2°C° 0.1 mm 4 m/S 752 mmHg 94%
    19:00 -2°C° 0.1 mm 4 m/S 753 mmHg 92%
    20:00 -2°C° 0 mm 4 m/S 754 mmHg 90%
    21:00 -3°C° 0 mm 4 m/S 755 mmHg 89%
    22:00 -3°C° 0 mm 4 m/S 756 mmHg 87%
    23:00 -4°C° 0 mm 4 m/S 756 mmHg 86%

    19 Oktober, Samstag

    Zeit Temperatur Niederschläge Wind Luftdruck Luftfeuchtigkeit
    00:00 -4°C° 0 mm 4 m/S 757 mmHg 84%
    01:00 -4°C° 0 mm 4 m/S 757 mmHg 83%
    02:00 -5°C° 0 mm 3 m/S 758 mmHg 85%
    03:00 -6°C° 0 mm 3 m/S 758 mmHg 87%
    04:00 -7°C° 0 mm 3 m/S 759 mmHg 90%
    05:00 -7°C° 0 mm 3 m/S 759 mmHg 89%
    06:00 -6°C° 0 mm 2 m/S 760 mmHg 89%
    07:00 -6°C° 0 mm 2 m/S 760 mmHg 89%
    08:00 -5°C° 0 mm 2 m/S 760 mmHg 84%
    09:00 -4°C° 0 mm 2 m/S 761 mmHg 79%
    10:00 -3°C° 0 mm 2 m/S 761 mmHg 74%
    11:00 -2°C° 0 mm 2 m/S 762 mmHg 71%
    12:00 -2°C° 0 mm 2 m/S 762 mmHg 69%
    13:00 -1°C° 0 mm 2 m/S 762 mmHg 66%
    14:00 0°C° 0 mm 1 m/S 762 mmHg 69%
    15:00 0°C° 0 mm 1 m/S 762 mmHg 72%
    16:00 -1°C° 0 mm 1 m/S 763 mmHg 76%
    17:00 -1°C° 0 mm 1 m/S 763 mmHg 78%
    18:00 -3°C° 0 mm 0 m/S 763 mmHg 79%
    19:00 -3°C° 0 mm 0 m/S 763 mmHg 81%
    20:00 -3°C° 0 mm 0 m/S 764 mmHg 82%
    21:00 -2°C° 0 mm 1 m/S 764 mmHg 82%
    22:00 -3°C° 0 mm 1 m/S 764 mmHg 82%
    23:00 -3°C° 0 mm 1 m/S 764 mmHg 83%

    20 Oktober, Sonntag

    Zeit Temperatur Niederschläge Wind Luftdruck Luftfeuchtigkeit
    00:00 -3°C° 0 mm 1 m/S 764 mmHg 84%
    01:00 -3°C° 0 mm 1 m/S 764 mmHg 85%
    02:00 -5°C° 0 mm 2 m/S 764 mmHg 86%
    03:00 -5°C° 0 mm 2 m/S 764 mmHg 87%
    04:00 -5°C° 0 mm 2 m/S 764 mmHg 87%
    05:00 -5°C° 0 mm 2 m/S 764 mmHg 87%
    06:00 -5°C° 0 mm 2 m/S 764 mmHg 87%
    07:00 -5°C° 0 mm 2 m/S 764 mmHg 87%
    08:00 -5°C° 0 mm 3 m/S 764 mmHg 82%
    09:00 -4°C° 0 mm 3 m/S 764 mmHg 78%
    10:00 -3°C° 0 mm 4 m/S 763 mmHg 73%
    11:00 -2°C° 0 mm 4 m/S 763 mmHg 72%
    12:00 -2°C° 0 mm 4 m/S 763 mmHg 71%
    13:00 -1°C° 0 mm 4 m/S 762 mmHg 70%
    14:00 -1°C° 0 mm 4 m/S 762 mmHg 72%
    15:00 -2°C° 0 mm 4 m/S 761 mmHg 75%
    16:00 -2°C° 0 mm 4 m/S 761 mmHg 78%
    17:00 -2°C° 0 mm 4 m/S 761 mmHg 79%
    18:00 -2°C° 0 mm 4 m/S 760 mmHg 80%
    19:00 -3°C° 0 mm 4 m/S 760 mmHg 82%
    20:00 -3°C° 0 mm 4 m/S 760 mmHg 81%
    21:00 -3°C° 0 mm 4 m/S 759 mmHg 81%
    22:00 -3°C° 0 mm 4 m/S 759 mmHg 81%
    23:00 -3°C° 0 mm 4 m/S 758 mmHg 80%

    21 Oktober, Montag

    Zeit Temperatur Niederschläge Wind Luftdruck Luftfeuchtigkeit
    00:00 -2°C° 0 mm 4 m/S 758 mmHg 79%
    01:00 -2°C° 0 mm 4 m/S 758 mmHg 78%
    02:00 -2°C° 0.9 mm 4 m/S 757 mmHg 85%
    03:00 -2°C° 0.9 mm 5 m/S 757 mmHg 91%
    04:00 -2°C° 0.9 mm 5 m/S 757 mmHg 98%
    05:00 -2°C° 0.9 mm 4 m/S 756 mmHg 97%
    06:00 -1°C° 0.9 mm 4 m/S 756 mmHg 96%
    07:00 -1°C° 0.9 mm 4 m/S 756 mmHg 96%
    08:00 -1°C° 0.7 mm 4 m/S 756 mmHg 96%
    09:00 -1°C° 0.7 mm 4 m/S 756 mmHg 96%
    10:00 0°C° 0.7 mm 4 m/S 755 mmHg 96%
    11:00 +1°C° 0.4 mm 3 m/S 756 mmHg 96%
    12:00 +1°C° 0.4 mm 3 m/S 756 mmHg 97%
    13:00 +1°C° 0.4 mm 3 m/S 756 mmHg 97%
    14:00 +2°C° 0 mm 2 m/S 756 mmHg 97%
    15:00 +3°C° 0 mm 2 m/S 756 mmHg 97%
    16:00 +3°C° 0 mm 2 m/S 756 mmHg 97%
    17:00 +3°C° 0.1 mm 1 m/S 756 mmHg 97%
    18:00 +3°C° 0.1 mm 1 m/S 757 mmHg 97%
    19:00 +3°C° 0.1 mm 1 m/S 757 mmHg 97%
    20:00 +3°C° 0.1 mm 1 m/S 757 mmHg 97%
    21:00 +3°C° 0.1 mm 1 m/S 758 mmHg 97%
    22:00 +3°C° 0.1 mm 1 m/S 758 mmHg 98%
    23:00 +2°C° 0 mm 0 m/S 758 mmHg 98%
    Mehr zeigen